Temperature
23 25 26 26 26 25 24 22 22 22 22 22 22 22 23 23 23 23 23 22 22 22 22 22 22 22 21 21 20 20 19 19 19 19 19 19 18 18 18 18 18 18 18 17
24 25 25 26 26 26 25 24 23 23 22 22 22 23 23 23 23 22 22 22 22 22 22 22 22 22 21 21 20 20 19 19 19 19 19 19 18 18 18 18 18 17 17 17
22 23 24 24 24 25 24 24 24 23 22 22 21 21 22 22 22 22 22 22 22 22 22 22 22 21 21 21 20 20 19 19 19 19 18 18 18 18 18 17 17 17 17 17
20 22 23 22 23 25 24 24 23 23 22 22 22 22 23 23 22 22 22 22 22 22 22 22 22 21 21 21 20 20 19 19 19 19 18 18 18 17 17 17 17 17 17 17
19 20 21 23 24 25 24 23 23 22 22 22 22 22 21 22 23 22 22 22 22 22 22 22 21 21 20 20 20 19 19 19 19 18 18 18 18 17 17 17 17 17 17 16
19 21 21 22 24 25 23 22 22 22 22 21 21 19 20 22 22 22 22 22 21 21 21 21 21 20 20 19 19 19 19 18 18 18 18 18 17 17 17 17 17 16 16 16
19 20 20 22 23 24 22 21 22 23 22 22 20 21 22 22 22 22 22 21 21 21 20 20 20 20 19 19 19 19 19 18 18 18 18 17 17 17 16 16 16 16 16 16
18 19 20 22 22 21 20 22 22 23 23 22 22 22 22 22 22 21 21 21 21 20 20 19 19 19 19 19 19 18 18 18 18 17 17 17 17 16 16 16 16 16 15 15
18 18 19 21 21 22 22 22 22 23 23 22 22 21 21 21 21 21 21 20 20 20 19 19 18 18 19 18 18 18 18 18 17 17 17 17 16 16 16 16 16 15 15 15
17 18 19 21 21 22 22 22 22 22 22 22 21 20 21 20 20 20 20 19 19 19 19 18 18 18 18 18 17 17 17 17 17 17 16 16 16 16 16 15 15 15 15 15
17 18 19 20 20 21 21 21 21 21 21 21 21 20 20 20 19 19 19 19 18 18 18 18 17 17 17 17 17 17 17 17 16 16 16 16 15 15 15 15 15 15 15 15
16 17 17 18 20 20 20 20 20 20 20 20 20 20 19 19 19 19 18 18 18 18 17 17 17 17 17 17 16 16 16 16 16 16 15 15 15 15 15 15 15 15 14 14
18 18 19 19 19 20 20 20 20 20 19 19 19 19 19 18 18 18 18 18 17 17 17 17 16 16 16 16 16 16 16 15 15 15 15 15 15 15 15 14 14 14 14 14
18 18 18 18 18 19 19 19 19 19 19 19 19 18 18 18 18 17 17 17 17 17 16 16 16 16 16 16 16 15 15 15 15 15 15 15 14 14 14 14 14 14 14 14
18 18 18 18 18 18 18 18 18 18 18 18 18 17 17 17 17 17 16 16 16 16 16 15 15 15 15 15 15 15 15 15 15 15 14 14 14 14 14 14 14 14 13 13
17 17 17 17 17 17 18 18 18 17 17 17 17 17 17 17 16 16 16 16 16 15 15 15 15 15 15 14 15 15 14 14 14 14 14 14 14 14 14 14 14 13 13 13
16 16 16 16 17 17 17 17 17 17 17 16 16 16 16 16 16 15 15 15 15 15 15 15 14 14 14 14 14 14 14 14 14 14 14 14 14 14 14 13 13 13 13 13
16 16 16 16 16 16 17 16 16 16 16 16 16 16 15 15 15 15 15 15 14 14 14 14 14 14 14 14 14 14 14 14 14 14 14 14 14 14 13 13 13 13 13 13
16 16 16 16 16 16 16 16 16 16 16 15 15 15 15 15 15 15 14 14 14 14 14 14 14 14 14 14 14 14 13 13 13 13 13 13 13 13 13 13 13 13 12 12
15 15 15 15 16 16 15 15 15 15 15 15 15 15 14 14 14 14 14 14 14 14 13 13 13 14 14 14 13 13 13 13 13 13 13 13 13 13 13 13 12 12 12 12
15 15 15 15 15 15 15 15 15 15 15 15 14 14 14 14 14 14 14 13 13 13 13 13 13 13 13 13 13 13 13 13 13 13 13 13 13 13 12 12 12 12 12 11
14 14 14 14 14 14 14 14 14 14 14 14 14 14 14 13 13 13 13 13 13 13 13 13 13 13 13 13 13 13 13 13 12 12 12 12 12 12 12 12 12 11 11 11
14 14 14 14 14 14 14 14 14 14 14 14 14 13 13 13 13 13 13 13 13 13 12 12 12 12 12 12 12 12 12 12 12 12 12 12 12 12 11 11 11 11 11 11
14 14 14 14 14 14 13 14 14 13 13 13 13 13 13 13 13 13 12 12 12 12 12 12 12 12 12 12 12 12 12 12 12 12 11 11 11 11 11 11 11 10 10 10
13 13 13 13 13 13 13 13 13 13 13 13 13 13 13 12 12 12 12 12 12 12 12 12 12 12 12 12 12 12 12 12 11 11 11 11 11 11 10 10 10 10 10 10
13 13 13 13 13 13 13 13 13 13 13 13 12 12 12 12 12 12 12 12 12 11 11 11 11 11 11 11 11 11 11 11 11 11 11 11 10 10 10 10 10 10 10 10
13 13 13 13 13 13 13 13 13 13 12 12 12 12 12 12 12 12 11 11 11 11 11 11 11 11 11 11 11 11 11 10 10 10 10 10 10 10 10 10 9 9 9 9
Wind_Speed
6 5 3 2 3 3 4 7 7 7 8 8 8 7 7 7 8 8 7 8 8 9 9 8 8 8 7 6 7 7 7 7 7 6 5 5 5 5 5 5 6 5 4 4
2 2 1 1 3 3 3 3 5 5 5 6 5 5 5 6 8 8 8 8 8 8 8 8 8 7 6 6 6 7 8 7 6 6 5 5 5 5 4 4 4 4 4 4
3 2 2 3 4 3 2 3 6 6 7 6 6 8 8 7 7 7 7 6 7 8 8 7 7 7 7 6 6 7 7 6 6 6 6 6 6 5 5 5 4 4 4 4
3 2 3 7 5 4 4 0 1 4 6 9 9 9 6 6 7 7 5 5 6 7 7 6 6 6 6 5 5 6 6 6 6 7 6 6 5 5 5 4 4 4 4 5
4 3 4 6 3 2 4 1 1 4 7 7 7 6 1 3 6 7 7 6 5 5 5 6 6 6 6 5 5 5 5 5 6 6 6 6 6 6 5 4 4 4 4 4
4 4 5 7 6 2 5 0 3 3 7 7 6 4 3 4 5 5 5 4 4 4 5 5 6 7 7 5 5 5 5 5 5 5 6 7 7 6 4 4 4 4 3 3
4 4 5 5 5 2 4 6 3 4 6 6 5 6 6 5 5 5 4 4 5 5 5 4 5 7 7 6 6 6 4 4 4 4 5 6 5 4 4 4 3 3 3 2
3 3 6 5 2 3 5 4 4 5 5 6 5 4 5 6 6 6 5 5 5 5 3 3 4 6 6 5 5 4 4 4 4 4 4 4 4 4 4 4 3 3 2 2
5 6 4 1 3 2 4 4 2 3 5 7 6 5 6 6 6 6 5 4 4 5 3 1 2 4 6 5 4 4 4 4 4 3 3 3 4 4 2 2 3 3 3 2
1 1 0 2 4 5 5 5 4 4 6 7 5 6 7 7 6 5 4 3 4 4 3 1 1 2 3 3 3 4 4 4 4 4 3 2 2 3 3 3 3 3 3 3
1 1 3 4 4 5 6 6 7 5 5 6 7 7 6 6 6 5 4 3 4 4 3 2 1 1 1 3 3 4 4 3 3 3 3 3 2 2 3 3 5 5 5 5
3 4 2 2 1 4 6 5 5 6 4 3 4 6 6 5 5 5 5 4 3 3 3 2 2 1 1 2 3 4 3 3 3 3 3 3 3 1 1 1 3 5 6 5
2 1 2 0 2 3 4 4 5 5 5 3 4 6 7 5 4 4 4 4 4 4 3 3 2 1 1 2 3 3 3 3 3 4 4 4 3 3 2 2 2 1 3 5
1 2 2 2 2 3 2 3 5 4 4 5 5 6 6 5 4 4 3 3 4 3 3 3 2 1 2 2 2 2 2 3 4 4 5 4 4 4 3 3 2 2 2 3
2 0 2 1 3 3 3 4 4 4 4 4 4 4 5 5 4 3 2 2 3 3 2 2 1 2 1 2 2 2 2 2 3 3 4 4 4 4 3 3 3 2 1 2
2 2 3 3 3 2 3 3 4 3 2 3 3 3 3 4 4 3 2 3 4 3 2 2 2 2 1 1 1 2 2 4 3 3 3 3 3 3 3 3 3 3 3 3
2 1 1 2 2 1 1 2 3 3 3 3 2 3 3 4 3 2 2 1 3 2 2 2 2 2 2 2 2 2 2 3 4 3 3 3 3 4 4 3 3 3 4 4
2 2 2 2 2 1 1 2 2 3 3 3 4 3 4 3 3 2 1 1 1 1 0 1 2 1 2 2 2 2 2 2 3 3 3 3 3 3 3 3 3 3 2 2
1 1 1 1 2 3 2 2 1 2 3 4 4 3 3 2 2 2 1 1 1 0 3 2 2 2 2 3 2 1 1 2 2 3 3 3 3 3 3 3 3 3 3 2
1 1 2 2 3 4 2 2 3 2 2 3 3 3 2 2 2 2 2 1 2 3 3 2 1 1 2 3 2 1 2 2 3 2 2 2 3 3 3 3 3 3 3 3
2 2 2 2 1 2 2 3 3 3 2 3 3 3 2 1 1 2 2 1 3 3 2 2 2 2 2 2 2 1 2 2 2 2 2 3 3 3 2 2 3 2 3 3
2 2 2 1 2 1 1 2 3 3 2 2 3 3 2 1 0 0 1 3 3 3 2 1 2 2 2 2 1 1 2 2 2 2 2 2 3 3 2 2 2 2 2 2
1 1 1 1 2 2 1 1 2 2 2 2 2 2 2 2 2 2 2 3 2 2 2 2 3 2 2 1 1 1 2 2 2 1 2 2 2 3 2 2 2 2 2 2
0 0 1 1 2 2 1 1 1 2 3 2 2 3 3 1 1 2 3 3 3 2 2 2 3 2 1 1 1 2 2 2 2 1 1 1 1 2 2 2 1 1 2 2
0 0 1 2 2 2 1 1 1 1 1 1 1 1 1 1 2 2 1 1 2 1 1 2 2 2 1 1 1 1 2 2 2 2 2 2 1 1 1 1 1 1 1 1
1 1 1 2 2 1 1 1 1 1 2 1 1 1 1 1 1 1 0 1 1 0 0 0 1 1 1 1 1 1 1 1 2 2 2 2 2 2 1 1 1 1 1 1
1 1 1 1 1 0 1 2 2 2 2 3 1 0 1 1 1 1 1 1 1 1 1 0 0 1 1 1 1 1 1 2 2 2 2 2 1 1 1 1 0 1 1 1
Wind_Direction
212 213 190 215 231 198 174 179 183 210 193 215 204 185 170 161 154 154 163 169 170 172 176 172 166 167 170 174 173 168 165 173 189 192 187 183 185 190 191 192 195 194 196 203
283 262 120 272 243 219 213 184 173 163 205 215 177 149 148 159 162 165 171 176 176 171 166 168 168 166 165 170 172 165 170 182 184 180 181 184 189 191 190 197 201 196 202 206
233 278 43 277 238 206 218 214 173 192 212 177 146 151 164 168 170 169 166 170 168 168 171 172 170 166 169 172 164 163 170 175 179 181 183 183 188 189 196 203 206 211 213 209
154 89 214 246 248 173 161 196 192 174 167 162 161 161 161 157 154 152 152 163 177 176 174 173 168 164 160 153 157 167 174 181 185 185 187 185 184 192 202 202 202 211 219 217
130 158 252 287 288 186 160 293 336 144 148 158 146 107 71 181 153 149 146 160 180 173 164 162 165 163 150 150 154 164 182 192 196 191 188 186 192 201 204 202 205 210 212 210
134 150 214 247 270 222 120 276 280 158 157 163 131 132 218 194 152 135 131 135 144 146 136 145 160 152 147 159 164 184 198 203 200 190 189 193 199 200 198 196 205 207 215 206
159 185 242 261 282 85 145 218 226 150 154 154 166 185 192 160 137 127 120 125 130 131 137 154 161 154 158 166 185 195 189 189 190 193 197 196 191 187 186 187 187 189 190 201
152 170 241 285 34 144 196 194 152 126 131 137 142 139 138 129 125 115 107 101 114 124 132 143 148 153 160 181 192 177 168 175 186 187 194 189 181 184 185 183 183 188 192 209
184 206 233 271 131 149 136 122 120 122 120 122 125 136 136 129 125 120 121 121 118 122 115 123 158 162 176 194 178 165 165 175 179 180 184 177 179 186 188 187 188 194 192 208
105 295 308 71 80 73 85 96 90 107 119 120 132 138 130 127 126 125 120 116 112 116 120 120 166 158 171 176 167 161 172 181 181 179 183 179 173 182 183 190 192 194 199 209
107 292 35 35 66 81 75 76 74 77 100 127 133 133 136 137 140 140 136 128 124 132 150 173 151 126 133 138 135 157 170 179 176 175 174 177 178 193 197 208 202 198 205 202
219 238 179 253 353 80 85 86 92 95 89 100 126 134 132 137 145 142 144 135 134 142 157 178 157 146 149 146 144 145 165 180 185 184 184 180 173 176 345 227 220 208 203 193
208 234 150 183 47 55 78 90 100 107 124 130 122 127 129 132 138 137 138 141 155 162 168 171 161 169 191 164 144 151 175 191 194 191 186 185 186 184 207 331 356 291 217 203
31 68 56 40 53 36 48 84 93 89 105 116 122 122 122 119 123 127 139 161 160 157 150 148 151 193 218 173 150 157 177 196 199 199 195 193 195 196 191 193 218 281 285 235
310 141 184 167 75 52 52 88 90 82 79 83 101 119 126 131 140 149 150 142 133 127 122 125 171 232 231 174 168 179 191 204 206 200 196 193 193 190 193 195 197 212 252 284
350 36 78 84 80 67 74 99 110 105 91 88 88 109 127 138 141 137 133 130 130 147 163 170 226 243 217 183 189 209 216 209 202 199 194 190 191 190 193 197 204 210 219 225
65 16 35 54 57 46 101 138 145 144 130 122 123 117 110 108 101 95 101 131 152 170 180 179 216 229 197 197 199 213 226 223 212 209 201 195 192 192 192 195 201 213 224 212
187 215 207 191 181 163 127 129 136 141 152 152 131 121 117 123 132 137 150 111 100 71 324 244 228 223 225 221 212 221 225 217 208 214 210 201 195 195 192 195 204 210 223 215
124 114 148 152 131 115 113 123 142 148 146 139 137 145 152 156 157 160 147 114 105 300 287 273 241 229 253 257 245 229 226 219 210 216 207 197 194 192 188 190 198 201 194 187
131 91 96 103 107 111 119 127 132 142 146 135 134 129 134 158 150 149 142 160 211 227 243 254 238 233 248 259 260 238 216 212 203 200 189 180 184 188 186 187 190 195 196 197
132 120 114 124 113 114 142 149 148 150 151 140 136 143 151 166 162 157 149 203 272 256 249 256 250 254 253 263 251 228 211 204 201 199 188 184 181 180 179 181 190 194 194 197
115 133 150 161 127 127 158 150 139 128 118 120 128 133 129 137 150 114 218 227 247 251 245 249 246 255 264 261 209 203 201 187 185 187 185 182 181 185 189 191 198 205 197 193
104 126 162 174 161 162 142 131 137 135 144 157 157 162 177 204 205 198 258 263 237 242 245 248 248 253 265 216 179 183 184 175 173 182 195 192 186 184 189 198 201 204 197 190
0 145 210 181 130 115 120 188 167 168 169 170 178 179 179 189 276 256 226 228 222 233 246 247 247 258 254 202 187 196 194 193 189 185 180 187 185 178 182 182 189 205 196 182
199 75 90 99 110 139 169 162 104 87 96 112 103 108 144 166 187 236 243 242 247 251 256 232 225 246 235 192 183 200 195 187 178 168 171 172 171 165 167 168 175 176 173 184
184 181 194 187 177 168 156 154 155 135 119 97 36 27 40 58 77 65 52 33 28 19 226 238 229 222 211 183 169 175 171 159 141 137 148 149 144 147 157 163 162 160 167 183
49 71 69 49 31 114 139 143 149 157 152 143 145 146 104 78 52 53 64 59 40 23 11 21 105 171 173 147 120 107 109 111 112 111 117 119 122 134 145 150 163 175 188 182
Height
1469 1464 1464 1466 1467 1467 1474 1480 1488 1486 1484 1477 1473 1472 1473 1474 1475 1478 1481 1483 1484 1486 1487 1487 1489 1492 1494 1496 1497 1499 1500 1501 1503 1506 1507 1507 1508 1509 1510 1511 1511 1511 1512 1512
1468 1462 1462 1466 1464 1465 1466 1468 1473 1475 1477 1469 1470 1471 1472 1473 1475 1477 1479 1480 1482 1484 1485 1487 1488 1490 1492 1493 1495 1496 1498 1500 1502 1503 1504 1505 1506 1507 1508 1508 1509 1509 1509 1509
1479 1468 1467 1477 1466 1464 1466 1463 1466 1474 1471 1466 1469 1470 1471 1472 1474 1475 1476 1479 1480 1481 1483 1485 1487 1488 1489 1491 1493 1494 1496 1497 1499 1500 1501 1501 1502 1504 1505 1505 1506 1506 1506 1506
1479 1477 1489 1474 1456 1456 1460 1461 1460 1461 1462 1463 1465 1467 1469 1470 1472 1473 1475 1477 1479 1480 1481 1483 1485 1487 1488 1489 1491 1492 1493 1495 1496 1496 1497 1498 1499 1500 1501 1502 1502 1503 1503 1503
1483 1486 1482 1466 1456 1455 1460 1465 1460 1460 1462 1463 1464 1468 1470 1470 1471 1472 1473 1475 1476 1478 1479 1480 1483 1485 1486 1487 1488 1490 1491 1492 1492 1493 1494 1495 1496 1497 1498 1499 1499 1500 1500 1500
1479 1484 1487 1469 1452 1449 1456 1469 1459 1458 1460 1461 1464 1472 1472 1470 1470 1471 1472 1474 1475 1476 1477 1479 1480 1482 1483 1484 1485 1486 1488 1489 1490 1490 1490 1491 1492 1493 1495 1496 1496 1497 1497 1497
1477 1480 1473 1457 1450 1450 1470 1470 1458 1456 1458 1460 1462 1464 1466 1467 1468 1470 1471 1472 1474 1475 1475 1476 1478 1479 1480 1481 1482 1483 1485 1486 1487 1488 1488 1488 1489 1490 1491 1492 1493 1493 1493 1493
1476 1480 1476 1452 1451 1456 1459 1455 1455 1454 1456 1458 1461 1463 1464 1465 1466 1468 1470 1471 1472 1473 1473 1474 1475 1476 1477 1478 1479 1481 1482 1483 1484 1485 1485 1486 1486 1487 1488 1489 1489 1490 1490 1490
1465 1466 1455 1451 1451 1452 1452 1454 1455 1455 1456 1457 1459 1461 1463 1464 1465 1467 1468 1469 1470 1471 1471 1472 1473 1474 1474 1475 1477 1478 1479 1479 1480 1481 1482 1483 1483 1484 1484 1485 1486 1486 1487 1487
1459 1456 1452 1451 1451 1451 1452 1454 1455 1455 1456 1458 1459 1460 1461 1462 1464 1465 1467 1468 1469 1469 1470 1470 1471 1471 1472 1473 1474 1475 1475 1476 1476 1477 1478 1479 1480 1481 1481 1482 1482 1483 1483 1483
1459 1456 1454 1453 1453 1453 1453 1454 1454 1455 1456 1457 1457 1459 1461 1462 1463 1464 1465 1466 1467 1468 1468 1469 1469 1469 1470 1470 1471 1471 1472 1473 1474 1474 1475 1476 1477 1478 1479 1479 1480 1480 1480 1480
1460 1455 1455 1455 1454 1453 1453 1453 1454 1455 1456 1457 1458 1458 1459 1461 1461 1462 1464 1465 1466 1466 1467 1467 1467 1467 1467 1468 1468 1468 1469 1470 1471 1471 1472 1473 1474 1475 1475 1476 1477 1477 1477 1478
1454 1453 1454 1454 1454 1454 1453 1453 1454 1455 1455 1456 1457 1457 1458 1460 1461 1462 1463 1464 1464 1464 1464 1465 1465 1465 1465 1466 1466 1466 1466 1467 1468 1468 1469 1470 1471 1471 1472 1473 1473 1474 1474 1475
1453 1453 1453 1454 1454 1453 1453 1453 1454 1455 1455 1455 1456 1457 1457 1458 1459 1460 1460 1461 1462 1462 1463 1463 1463 1463 1463 1464 1464 1464 1464 1465 1465 1466 1467 1467 1468 1469 1469 1469 1470 1470 1471 1472
1452 1452 1452 1453 1452 1452 1452 1452 1453 1454 1454 1454 1455 1455 1456 1456 1457 1458 1459 1460 1460 1460 1461 1461 1461 1461 1462 1462 1462 1461 1461 1461 1462 1463 1464 1465 1465 1466 1466 1467 1467 1467 1468 1469
1451 1451 1451 1451 1451 1452 1452 1452 1453 1453 1453 1453 1454 1455 1455 1455 1456 1457 1457 1458 1457 1458 1458 1457 1458 1459 1460 1460 1459 1459 1460 1459 1460 1460 1461 1462 1462 1463 1464 1464 1464 1464 1465 1465
1450 1450 1450 1450 1450 1451 1451 1452 1453 1452 1453 1453 1453 1454 1454 1454 1454 1455 1455 1456 1456 1456 1456 1456 1456 1457 1458 1457 1457 1457 1457 1457 1457 1458 1458 1459 1460 1460 1461 1461 1461 1462 1462 1462
1449 1449 1449 1450 1449 1449 1450 1451 1451 1451 1451 1452 1452 1453 1452 1452 1453 1453 1454 1454 1454 1454 1455 1455 1455 1455 1455 1455 1454 1454 1454 1454 1454 1455 1455 1456 1457 1457 1458 1458 1458 1459 1459 1459
1447 1447 1447 1447 1448 1448 1448 1449 1450 1449 1450 1450 1451 1451 1451 1451 1452 1452 1452 1452 1452 1452 1453 1453 1453 1453 1452 1452 1452 1452 1452 1452 1452 1452 1453 1453 1454 1454 1455 1455 1455 1455 1455 1455
1445 1446 1446 1446 1446 1446 1447 1447 1448 1448 1448 1448 1449 1449 1449 1450 1451 1451 1451 1451 1451 1451 1451 1451 1451 1451 1450 1450 1450 1449 1449 1449 1449 1449 1450 1450 1451 1451 1451 1452 1452 1452 1452 1452
1443 1444 1444 1445 1444 1445 1445 1446 1446 1446 1446 1447 1447 1448 1448 1449 1449 1449 1449 1448 1449 1449 1449 1448 1448 1447 1447 1447 1447 1446 1446 1446 1446 1447 1447 1448 1448 1448 1448 1449 1449 1449 1449 1449
1442 1443 1443 1443 1443 1443 1444 1444 1444 1444 1445 1446 1446 1446 1447 1447 1448 1447 1447 1447 1446 1446 1446 1445 1444 1444 1444 1443 1443 1443 1443 1443 1444 1444 1444 1444 1445 1445 1445 1446 1446 1446 1446 1446
1441 1441 1442 1442 1442 1442 1443 1443 1443 1444 1444 1445 1445 1445 1445 1446 1445 1445 1444 1444 1444 1443 1442 1442 1441 1441 1440 1440 1440 1440 1441 1441 1442 1442 1442 1442 1442 1443 1443 1443 1443 1443 1444 1444
1440 1440 1440 1440 1440 1441 1441 1442 1443 1443 1443 1444 1444 1444 1444 1443 1443 1443 1442 1441 1441 1440 1439 1439 1438 1438 1438 1438 1438 1438 1439 1439 1440 1439 1439 1440 1440 1440 1441 1441 1441 1441 1441 1441
1438 1438 1438 1439 1439 1439 1440 1441 1441 1441 1442 1442 1442 1442 1442 1442 1441 1440 1440 1439 1438 1437 1437 1437 1436 1436 1436 1436 1436 1436 1437 1437 1437 1438 1438 1438 1439 1439 1439 1439 1439 1439 1439 1439
1437 1437 1437 1437 1438 1438 1439 1439 1439 1439 1440 1440 1441 1441 1440 1440 1440 1439 1438 1437 1437 1436 1435 1435 1434 1434 1434 1434 1434 1434 1434 1435 1435 1436 1436 1436 1436 1436 1437 1437 1437 1437 1437 1437
1437 1437 1437 1437 1437 1438 1438 1438 1438 1439 1439 1440 1440 1440 1440 1439 1439 1438 1437 1437 1436 1435 1434 1434 1434 1433 1433 1433 1433 1433 1433 1434 1434 1434 1435 1435 1435 1435 1435 1435 1435 1435 1435 1434